Home   Weather   Celje   Past weeks

Flag for Slovenia Past Weather in Celje, Slovenia — Yesterday and Last 2 Weeks

Now
45 °F

Quite cool.


Feels Like: 45 °F
Forecast: 43 / 69 °F
Wind: No wind

Location: Celje

Current Time: Sep 25, 2016 at 4:09:41 AM

Latest Report: Sep 25, 2016 at 3:00 AM


Visibility: N/A

Pressure: 30.28 "Hg

Humidity: 96%

Dew Point: 44 °F

Location of CeljeLocation

Past Weather in Celje — Graph

°F

Celje Temperature Yesterday

Maximum temperature yesterday: 72 °F (at 2:00 PM)
Minimum temperature yesterday: 46 °F (at 7:00 AM)
Average temperature yesterday: 56 °F

High & Low Weather Summary for the Past Weeks

 TemperatureHumidityPressure
High85 °F (Sep 12, 4:00 PM)97% (Sep 11, 7:00 AM)30.38 "Hg (Sep 11, 7:00 AM)
Low41 °F (Sep 22, 5:00 AM)43% (Sep 24, 4:00 PM)29.77 "Hg (Sep 19, 2:00 PM)
Average62 °F81%30.04 "Hg
* Reported Sep 10 2:00 AM — Sep 25 2:00 AM, Celje, Weather by CustomWeather, © 2016

Note: Actual official high and low records may vary slightly from our data, if they occured in-between our weather recording intervals... More about our weather records

Advertising

Celje Weather History for the Previous 24 Hours

Scroll right to see more
 ConditionsComfort  
Time TempWeatherWind HumidityBarometerVisibility
2:00 AM
Sun, Sep 25
46 °FCool.1 mph96%30.29 "HgN/A
1:00 AM46 °FCool.1 mph95%30.29 "HgN/A
12:00 AM48 °FCool.1 mph95%30.30 "HgN/A
11:00 PM
Sat, Sep 24
49 °FCool.No wind95%30.30 "HgN/A
10:00 PM51 °FCool.No wind91%30.31 "HgN/A
9:00 PM53 °FCool.No wind92%30.30 "HgN/A
8:00 PM55 °FPassing clouds.1 mph86%30.28 "Hg25 mi
7:00 PM59 °FCool.1 mph79%30.27 "HgN/A
6:00 PM66 °FMild.2 mph65%30.25 "HgN/A
5:00 PM71 °FMild.2 mph45%30.25 "HgN/A
4:00 PM72 °FMild.3 mph43%30.26 "HgN/A
3:00 PM72 °FScattered clouds.2 mph46%30.27 "Hg25 mi
2:00 PM72 °FPassing clouds.1 mph50%30.29 "Hg25 mi
1:00 PM70 °FMild.1 mph48%30.31 "HgN/A
11:00 AM62 °FCool.1 mph68%30.35 "HgN/A
10:00 AM57 °FCool.No wind83%30.37 "HgN/A
9:00 AM54 °FCool.1 mph91%30.37 "HgN/A
8:00 AM47 °FFog.No wind96%30.38 "Hg2 mi
7:00 AM46 °FCool.No wind96%30.37 "HgN/A
6:00 AM46 °FCool.No wind96%30.36 "HgN/A
5:00 AM46 °FCool.No wind95%30.36 "HgN/A
4:00 AM46 °FCool.No wind96%30.36 "HgN/A
Weather by CustomWeather, © 2016

See weather overviewHow to use our weather pages